Location: Unspecified
(0.0000°N, 1.0000°E)
Time: 01:05:22
(UTC+02:00)

Amateur Radio Satellites - All Passes

Search period start: 23 October 2014 00:35
Search period end: 24 October 2014 00:35
Location: Unspecified, 0.0000°N, 1.0000°E

Satellite Date Start Highest point End Downlink Frequencies (MHz)
Time Altitude Azimuth
SO-50 23 Oct 00:45:11 00:49:38 35° 68° (ENE) 00:54:02 436.795 FM
JAS-1B 23 Oct 01:53:08 01:57:47 16° 108° (ESE) 02:02:43 435.800 - 435.900 CW/SSB
UOSAT-12 23 Oct 02:22:47 02:26:40 27° 68° (ENE) 02:30:30 437.025 FM, 437.400 FM
KITSAT 1 23 Oct 02:27:09 02:30:26 13° 248° (WSW) 02:33:45 435.175 FM
SO-50 23 Oct 02:27:49 02:29:57 13° 248° (WSW) 02:32:04 436.795 FM
Oscar 16 23 Oct 02:34:36 02:39:08 33° 103° (ESE) 02:43:41 437.025 USB, Beacon 2401.1428
AO-Echo 23 Oct 02:49:58 02:53:56 22° 102° (ESE) 02:57:51 ?
Uribyol 2 23 Oct 02:51:14 02:54:26 17° 103° (ESE) 02:57:38 436.500 FM
ITAMSAT 1 23 Oct 02:56:24 02:59:51 18° 103° (ESE) 03:03:17 435.822 SSB
Oscar 19 23 Oct 03:27:57 03:32:55 55° 282° (WNW) 03:37:56 437.125 CW, 437.150 USB
JAS-1B 23 Oct 03:39:35 03:47:22 70° 283° (WNW) 03:56:36 435.800 - 435.900 CW/SSB
AO-27 23 Oct 03:39:37 03:44:46 65° 103° (ESE) 03:49:55 436.795 MHz FM
Sapphire 23 Oct 03:47:45 03:52:36 34° 109° (ESE) 03:57:25 437.095 MHz 1200 baud AX-25 AFSK
UOSAT-12 23 Oct 04:04:13 04:06:32 14° 248° (WSW) 04:08:50 437.025 FM, 437.400 FM
PCSat 23 Oct 04:10:01 04:15:23 71° 109° (ESE) 04:20:44 145.825 MHz
Oscar 16 23 Oct 04:15:27 04:18:12 15° 283° (WNW) 04:20:58 437.025 USB, Beacon 2401.1428
AO-Echo 23 Oct 04:28:13 04:32:24 24° 283° (WNW) 04:36:34 ?
Uribyol 2 23 Oct 04:29:11 04:33:38 30° 283° (WNW) 04:38:05 436.500 FM
ITAMSAT 1 23 Oct 04:34:41 04:39:04 28° 283° (WNW) 04:43:26 435.822 SSB
Gurwin Techsat 1B 23 Oct 04:40:04 04:45:14 56° 282° (WNW) 04:50:26 435.225 FM
PANSAT 23 Oct 04:50:47 04:54:30 46° 150° (SSE) 04:58:11 not established
TMSAT-1 23 Oct 04:52:49 04:58:00 58° 282° (WNW) 05:03:12 436.925 FM
Sapphire 23 Oct 05:32:40 05:35:45 15° 290° (WNW) 05:38:50 437.095 MHz 1200 baud AX-25 AFSK
AO-7 23 Oct 05:53:28 06:01:49 85° 106° (ESE) 06:10:12 29.400 - 29.500 MHz
JAS-2 23 Oct 06:09:43 06:15:46 25° 102° (ESE) 06:21:28 435.800 - 435.900 CW/SSB, 435.910 FM
Uosat F 23 Oct 06:09:58 06:14:59 75° 283° (WNW) 06:20:01 435.120 FM
OPAL 23 Oct 06:26:58 06:32:00 49° 76° (ENE) 06:36:58 ?
PANSAT 23 Oct 06:31:29 06:34:35 23° 331° (NNW) 06:37:41 not established
Hamsat 23 Oct 07:13:02 07:17:11 59° 101° (ESE) 07:21:24 145.90 MHz
Saudisat 1A 23 Oct 07:48:14 07:52:36 78° 112° (ESE) 07:56:57 436.775 MHz
JAS-2 23 Oct 07:53:18 08:00:27 41° 284° (WNW) 08:07:15 435.800 - 435.900 CW/SSB, 435.910 FM
AO-7 23 Oct 07:53:59 07:54:06 10° 288° (WNW) 07:54:14 29.400 - 29.500 MHz
STRAND 1 23 Oct 08:07:57 08:12:53 51° 77° (ENE) 08:17:49 ?
SO-67 23 Oct 08:23:55 08:27:11 42° 101° (E) 08:30:27 435.3500 MHz FM
RS-15 23 Oct 09:51:18 10:02:27 53° 70° (ENE) 10:14:01 29.354 - 29.394 USB, Beacon 29.352 USB
UKube-1 23 Oct 10:16:11 10:17:20 11° 103° (ESE) 10:18:30 145.840 MHz, 145.915 MHz
HO-68 23 Oct 10:46:30 10:53:40 78° 284° (WNW) 11:00:51 435.675 MHz FM
Oscar 11 23 Oct 10:56:37 11:00:37 39° 102° (ESE) 11:04:38 145.825 FM, Beacon 2401.500 USB
ZACube-1 23 Oct 11:40:03 11:44:05 52° 102° (ESE) 11:48:07 437.345 MHz
MaSat-1 23 Oct 11:48:44 11:50:26 18° 73° (ENE) 11:52:10 437.345 MHz
UKube-1 23 Oct 11:49:27 11:53:15 30° 282° (WNW) 11:57:03 145.840 MHz, 145.915 MHz
ISS 23 Oct 12:01:18 12:04:37 90° 139° (SE) 12:07:55 145.800 FM
RS-15 23 Oct 12:05:03 12:14:33 29° 248° (WSW) 12:24:25 29.354 - 29.394 USB, Beacon 29.352 USB
AO-40 23 Oct 12:10:37 12:17:31 71° 8° (N) 12:23:49 Beacon 2401.320
FUNcube-1 23 Oct 12:25:37 12:29:17 31° 282° (WNW) 12:32:58 145.950 - 145.970 MHz USB
KITSAT 1 23 Oct 12:35:14 12:43:20 90° 92° (E) 12:51:25 435.175 FM
SO-50 23 Oct 12:58:28 13:02:49 63° 112° (ESE) 13:07:11 436.795 FM
JAS-1B 23 Oct 14:06:14 14:09:37 14° 80° (E) 14:12:46 435.800 - 435.900 CW/SSB
Oscar 19 23 Oct 14:23:42 14:27:45 23° 77° (ENE) 14:31:47 437.125 CW, 437.150 USB
UOSAT-12 23 Oct 14:32:19 14:36:37 47° 112° (ESE) 14:41:00 437.025 FM, 437.400 FM
AO-27 23 Oct 14:40:23 14:40:49 10° 77° (ENE) 14:41:16 436.795 MHz FM
PCSat 23 Oct 15:05:39 15:08:30 15° 70° (ENE) 15:11:22 145.825 MHz
Oscar 16 23 Oct 15:07:55 15:13:08 87° 78° (ENE) 15:18:18 437.025 USB, Beacon 2401.1428
AO-Echo 23 Oct 15:18:27 15:22:57 45° 78° (ENE) 15:27:30 ?
Uribyol 2 23 Oct 15:24:27 15:29:23 44° 77° (ENE) 15:34:19 436.500 FM
ITAMSAT 1 23 Oct 15:29:58 15:34:57 48° 77° (ENE) 15:39:55 435.822 SSB
Gurwin Techsat 1B 23 Oct 15:39:44 15:44:09 27° 77° (ENE) 15:48:32 435.225 FM
TMSAT-1 23 Oct 15:52:15 15:56:34 26° 77° (ENE) 16:00:52 436.925 FM
JAS-1B 23 Oct 15:53:11 16:00:17 48° 255° (WSW) 16:06:18 435.800 - 435.900 CW/SSB
Oscar 19 23 Oct 16:02:57 16:06:49 21° 257° (WSW) 16:10:40 437.125 CW, 437.150 USB
AO-27 23 Oct 16:15:05 16:20:02 46° 257° (WSW) 16:25:00 436.795 MHz FM
Sapphire 23 Oct 16:23:33 16:28:56 75° 251° (WSW) 16:34:20 437.095 MHz 1200 baud AX-25 AFSK
AO-7 23 Oct 16:31:10 16:35:57 17° 73° (ENE) 16:40:42 29.400 - 29.500 MHz
PANSAT 23 Oct 16:37:59 16:41:42 48° 30° (NNE) 16:45:26 not established
PCSat 23 Oct 16:46:44 16:51:39 36° 251° (WSW) 16:56:34 145.825 MHz
Uosat F 23 Oct 17:03:30 17:06:15 15° 77° (ENE) 17:08:59 435.120 FM
Uribyol 2 23 Oct 17:07:20 17:08:33 11° 257° (WSW) 17:09:47 436.500 FM
Gurwin Techsat 1B 23 Oct 17:20:08 17:23:50 19° 257° (WSW) 17:27:32 435.225 FM
TMSAT-1 23 Oct 17:32:24 17:36:12 20° 257° (WSW) 17:40:01 436.925 FM
PANSAT 23 Oct 18:18:44 18:21:48 22° 209° (SSW) 18:24:53 not established
AO-7 23 Oct 18:20:11 18:28:20 61° 254° (WSW) 18:36:27 29.400 - 29.500 MHz
Uosat F 23 Oct 18:40:22 18:44:45 31° 257° (WSW) 18:49:08 435.120 FM
OPAL 23 Oct 18:58:41 19:03:35 68° 284° (WNW) 19:08:31 ?
Hamsat 23 Oct 19:20:15 19:24:33 77° 79° (ENE) 19:28:47 145.90 MHz
JAS-2 23 Oct 19:26:42 19:31:53 65° 258° (WSW) 19:37:29 435.800 - 435.900 CW/SSB, 435.910 FM
Saudisat 1A 23 Oct 19:54:14 19:58:35 66° 248° (WSW) 20:02:57 436.775 MHz
SO-67 23 Oct 20:08:40 20:11:24 22° 79° (E) 20:14:08 435.3500 MHz FM
STRAND 1 23 Oct 20:40:34 20:45:37 63° 283° (WNW) 20:50:41 ?
RS-15 23 Oct 21:34:53 21:45:33 43° 112° (ESE) 21:55:43 29.354 - 29.394 USB, Beacon 29.352 USB
UKube-1 23 Oct 22:24:32 22:27:02 15° 78° (ENE) 22:29:31 145.840 MHz, 145.915 MHz
HO-68 23 Oct 22:38:06 22:45:16 89° 76° (ENE) 22:52:25 435.675 MHz FM
KITSAT 1 23 Oct 22:52:53 22:56:08 13° 68° (ENE) 22:59:23 435.175 FM
FUNcube-1 23 Oct 23:01:05 23:03:49 16° 78° (ENE) 23:06:33 145.950 - 145.970 MHz USB
Oscar 11 23 Oct 23:05:37 23:09:52 54° 78° (ENE) 23:14:06 145.825 FM, Beacon 2401.500 USB
MaSat-1 23 Oct 23:28:22 23:32:08 26° 107° (ESE) 23:35:50 437.345 MHz
ISS 23 Oct 23:36:49 23:40:03 53° 55° (NE) 23:43:18 145.800 FM
RS-15 23 Oct 23:47:50 23:57:25 32° 291° (WNW) 00:06:47 29.354 - 29.394 USB, Beacon 29.352 USB
ZACube-1 23 Oct 23:50:15 23:54:52 79° 79° (ENE) 23:59:29 437.345 MHz
UKube-1 23 Oct 23:59:35 00:02:57 22° 258° (WSW) 00:06:18 145.840 MHz, 145.915 MHz
